www.pogodaiklimat.ru

Архив погоды в Ереване (Армения)

Время
(UTC), дата
15 20.09
18 20.09
21 20.09
00 21.09
03 21.09
06 21.09
09 21.09
12 21.09
15 21.09
18 21.09
21 21.09
00 22.09
03 22.09
06 22.09
09 22.09
12 22.09
15 22.09
18 22.09
21 22.09
00 23.09
03 23.09
06 23.09
09 23.09
12 23.09
15 23.09
18 23.09
21 23.09
00 24.09
03 24.09
06 24.09
09 24.09
12 24.09
15 24.09
18 24.09
21 24.09
00 25.09
03 25.09
06 25.09
09 25.09
12 25.09
15 25.09
18 25.09
21 25.09
00 26.09
03 26.09
06 26.09
09 26.09
12 26.09
15 26.09
18 26.09
21 26.09
00 27.09
03 27.09
06 27.09
09 27.09
12 27.09
Ветер
(напр.,м/с)
Видим. Явления Облачность Т
(С)
Тd
(С)
f
(%)
Тe
(С)
Тes
(С)
Комфортность P
(гПа)
Po
(гПа)
Тmin
(С)
Tmax
(С)
R
(мм)
R24
(мм)
S
(см)
штиль 0 50 км 3/0
[Ac cast Cc]
+30.2 +5.9 22 +29 +29 жарко 1002.5 911.7
СВ 4 50 км 3/0
[Ac trans]
+24.6 +3.8 26 +24 +24 комфорт 1005.9 913.1 +34.5
С 1 50 км ясно +22.0 +7.1 38 +23 +23 комфорт 1006.7 913.2
ЮВ 1 50 км ясно +16.6 +8.4 58 +18 +18 тепло 1008.6 913.2
СВ 1 50 км 4/0
[Ac cast]
+13.8 +8.0 68 +14 +14 прохладно 1010.2 913.8
Ю 2 50 км 8/0
[Ac cast Ci fib]
+24.4 +5.3 29 +24 +28 комфорт 1007.0 914.1 +13.7
ЮВ 2 50 км 5/3 1000 м
[Sc Ac cast Ci]
+30.4 +6.2 22 +29 +36 жарко 1002.9 912.1
ЮВ 8 50 км 8/3 1000 м
[Sc Ac As Ci fib]
+33.6 +5.8 18 +31 +32 жарко 999.1 909.5
В 12
{20}
2000 м пыльный позёмок 8/8 700 м
[Cb cap]
+30.1 1000.8 910.0
ЮВ 9 50 км 4/4 1000 м
[Cb cap]
+28.6 +5.5 23 +27 +27 жарко 1001.5 910.4 +33.7
ЮВ 6 50 км 3/3 1000 м
[St]
+26.7 +6.8 28 +26 +26 жарко 1002.8 911.0
ЮВ 3 50 км 6/3 1000 м
[Cb cap Ac trans Ci fib]
+24.3 +7.1 33 +24 +24 комфорт 1003.5 910.9
З 11 50 км 9/5 1000 м
[Cb cap Ac trans]
+24.4 +9.4 39 +25 +25 комфорт 1005.6 913.0
ЮВ 1
{18}
50 км 5/3 1000 м
[Sc Ac cast]
+23.5 +12.7 51 +26 +29 жарко 1006.8 913.9 +20.8
З 3 50 км 8/3 1000 м
[Cb cap Ac cuf]
+27.4 +8.0 29 +27 +31 жарко 1005.6 913.8
В 3
{18}
50 км 6/3 1000 м
[Cb cap Ac cuf Ci fib]
+26.4 +7.4 30 +26 +29 жарко 1005.8 913.6
В 3
{18}
50 км в посл. час ливневой дождь {гроза} 9/5 1000 м
[Cb cap Ac cuf]
+17.0 +13.6 80 +17 +17 холодно 1010.5 915.3
СЗ 2 4000 м гроза без осадков {ливн. дождь} 10/6 1000 м
[Cb cap Ac cuf]
+15.6 +12.9 84 +15 +15 прохладно 1012.2 916.4 +27.9 3
штиль 0 50 км в посл. час гроза {ливн. дождь} 8/4 1000 м
[Cb cap Ac cast]
+15.4 +12.7 84 +15 +15 по сезону 1012.2 916.3
СВ 1 50 км {гроза, ливн. дождь} 3/1 1000 м
[Cb cap Ac trans]
+13.4 +12.8 96 +13 +13 по сезону 1011.8 915.3
штиль 0 2000 м дымка {гроза} 5/3 1000 м
[Cb cap Ac trans]
+12.6 +12.1 97 +12 +12 прохладно 1011.8 915.0
ЮВ 1 4000 м дымка {гроза} 4/0
[Ac cast]
+18.2 +14.2 77 +20 +25 тепло 1010.2 915.4 +12.2 2
Ю 1 50 км 3/1 1000 м
[Sc Ac cast]
+23.3 +11.7 48 +26 +37 жарко 1007.7 914.5
ЮЗ 2 50 км 4/4 1000 м
[Sc diur, vesp Ac cast]
+26.6 +9.2 33 +27 +30 жарко 1005.6 913.6
ЮВ 1 50 км 5/0
[Ac cast Ci fib]
+24.0 +11.2 45 +25 +25 комфорт 1006.4 913.5
С 1 50 км ясно +17.4 +11.3 67 +18 +18 по сезону 1010.0 914.8 +27.4
штиль 0 50 км ясно +15.0 +8.5 65 +15 +15 по сезону 1011.8 915.6
штиль 0 50 км ясно +13.2 +7.7 69 +13 +13 по сезону 1012.8 916.0
штиль 0 50 км ясно +10.1 +8.2 88 +9 +9 очень
холодно
1014.3 916.8
ЮВ 2 50 км 4/0
[Ac cast Cc]
+19.2 +9.8 54 +21 +25 комфорт 1012.5 917.5 +9.9
ЮВ 3 50 км 6/0
[Ac cast Cc]
+26.8 +7.8 30 +27 +33 жарко 1007.4 915.3
СЗ 3 50 км 6/0
[Ac cast]
+27.8 +7.0 27 +27 +30 жарко 1005.0 913.4
З 2 50 км 8/0
[Ac cast]
+24.8 +10.2 40 +26 +26 жарко 1006.5 913.9
З 3 50 км 9/3 1000 м
[Sc Ac As]
+23.2 +8.9 40 +25 +25 комфорт 1007.9 914.6 +28.6
ЮЗ 7 50 км 10/4 1000 м
[Sc Ac As]
+17.8 +7.0 49 +17 +17 по сезону 1012.6 917.2
В 3 50 км 8/1 1000 м
[Sc Ac As]
+14.5 +6.2 57 +14 +14 по сезону 1015.7 919.0
ЮВ 3 50 км 3/0
[Ac trans]
+11.6 +5.3 65 +10 +10 холодно 1017.7 919.9
Ю 4 50 км 1/0
[Ac trans]
+17.0 +3.4 40 +17 +20 по сезону 1018.2 922.0 +11.0
ЮЗ 3 50 км 3/0
[Ac cast]
+21.3 +4.6 33 +22 +29 комфорт 1016.2 921.5
ЮЗ 5 50 км 1/0
[Ac cast]
+23.4 -0.9 20 +22 +25 комфорт 1014.1 920.2
ЮЗ 2 50 км 1/0
[Ac trans]
+20.7 +3.6 32 +22 +22 комфорт 1015.3 920.5
СВ 4 50 км 3/0
[Ac trans]
+17.2 +5.5 46 +17 +17 по сезону 1018.4 922.2 +23.6
СЗ 2 50 км ясно +14.7 +5.9 56 +15 +15 по сезону 1020.2 923.1
ЮВ 1 50 км ясно +9.8 +4.5 70 +10 +10 по сезону 1022.5 923.5
ЮВ 1 50 км ясно +8.0 +4.1 76 +7 +7 очень
холодно
1024.0 924.4
Ю 1 50 км ясно +15.8 +2.7 41 +17 +23 по сезону 1021.9 924.9 +7.1
штиль 0 50 км ясно +20.8 +2.7 30 +21 +37 комфорт 1018.4 923.4
штиль 0 50 км ясно +24.7 +4.5 27 +24 +32 комфорт 1014.6 921.0
ЮЗ 2 50 км ясно +21.9 +4.3 32 +22 +22 комфорт 1014.4 920.0
СВ 3 50 км ясно +14.6 +6.1 57 +14 +14 прохладно 1017.7 920.7 +25.1
ЮЗ 1 50 км ясно +14.1 +3.8 50 +15 +15 по сезону 1017.7 920.5
штиль 0 50 км ясно +9.2 +4.1 70 +9 +9 по сезону 1019.2 920.4
штиль 0 50 км ясно +8.8 +4.0 72 +8 +8 прохладно 1019.2 920.3
ЮВ 3 4000 м дымка ясно +17.4 +4.8 43 +17 +22 тепло 1016.2 920.4 +7.6
ЮЗ 2 50 км 1/0
[Ci fib]
+23.2 +3.8 28 +23 +34 комфорт 1012.8 919.0
Ю 1 50 км ясно +27.2 +2.3 20 +26 +32 жарко 1008.9 916.5
Местоположение метеостанции Ереван (Армения): широта 40.15 долгота 44.38 высота над уровнем моря 854 м.
В архиве по умолчанию представлена погода в Ереване за последнюю неделю. Архивные данные за месяц целиком и за предыдущие месяцы, начиная с января 2011 года, Вы можете получить, выбрав интересующий диапазон дат из раскрывающегося списка и нажав кнопку "Найти!".
*Определитесь, кто Вы:
Внимание! Время в таблицах - всемирное. Для получения местного времени необходимо прибавить поправку, которая равна 4 ч.
Смотрите также архив погоды в соседних городах и на ближайших метеорологических станциях:
Партнеры нашего сайта:      
Пояснения к столбцам:
  • Ветер - указаны скорость ветра в м/с - средняя за 10 мин, порывы в срок и между сроками (в фигурных скобках) и направление, откуда дует ветер: С - северный,
  • СВ - северо-восточный, В - восточный, ЮВ - юго-восточный, Ю - южный, ЮЗ - юго-западный, З - западный, СЗ - северо-западный.
  • Видимость - горизонтальная дальность видимости в метрах или километрах. При видимости от 1 до 10 км при отсутствии осадков обычно наблюдается дымка, при ухудшении видимости до 1 км и менее - туман. В сухую погоду видимость может ухудшаться дымом, пылью или мглою.
  • Явления - указаны атмосферные явления, наблюдавшиеся в срок или в последний час перед сроком; фигурными скобками обозначены явления, наблюдавшиеся между сроками (за 1-3 часа до срока); квадратными скобками обозначены град или гололедные отложения с указанием их диаметра в мм.
  • Облачность - указаны через наклонную черту общая и нижняя облачность в баллах и высота нижней границы облаков в метрах; квадратными скобками обозначены формы облаков: Ci - перистые, Cs - перисто-слоистые, Cc - перисто-кучевые, Ac - высококучевые, As - высокослоистые, Sc - слоисто-кучевые, Ns - слоисто-дождевые, Cu - кучевые, Cb - кучево-дождевые. Подробнее классификацию облаков см. в Атласе облаков (PDF).
  • T - Температура воздуха - температура, измеренная на высоте 2 м над землей.
  • Td - Температура точки росы - температура, при понижении до которой содержащийся в воздухе водяной пар достигнет насыщения.
  • f - Относительная влажность воздуха - влажноcть воздуха, измеренная на высоте 2 м над землей.
  • Te - Эффективная температура - температура, которую ощущает одетый по сезону человек в тени. Характеристика душности погоды. При расчете учитывается влияние влажности воздуха и скорости ветра на теплоощущения человека.
  • Tes - Эффективная температура на солнце - температура, которую ощущает человек, с поправкой на солнечный нагрев. Характеристика знойности погоды. Зависит от высоты солнца над горизонтом, облачности и скорости ветра. Ночью, в пасмурную погоду, а также при ветре 12 м/с и более поправка равна нулю.
  • P - Атмосферное давление - приведенное к уровню моря атмосферное давление.
  • Po - Атмосферное давление - измеренное на уровне метеостанции атмосферное давление.
  • Tmin - Минимальная температура - минимум температуры воздуха на высоте 2 м над землей.
  • Tmax - Максимальная температура - максимум температуры воздуха на высоте 2 м над землей.
  • R - Количество осадков - Количество выпавших осадков за период времени, мм. При наведении курсора мыши на число - период времени, за который выпало указанное количество осадков.
  • R24 - Количество осадков - Количество выпавших осадков за 24 часа, мм.
  • S - Снежный покров - Высота снежного покрова, см. При наведении курсора мыши на число - состояние снежного покрова и степень покрытия местности в баллах.